{"data":{"norad_id":58669,"epoch":"2026-09-19T19:25:40.929600Z","epoch_age_seconds":209402,"freshness":"STALE","line1":"1 58669U 23211C   26262.80950150  .00000352  00000+0  22312-4 0  9992","line2":"2 58669  43.0026  68.9087 0001420 269.1777  90.8912 15.27579719152151","mean_motion":15.27579719,"eccentricity":0.000142,"inclination_deg":43.0026,"raan_deg":68.9087,"arg_perigee_deg":269.1777,"mean_anomaly_deg":90.8912,"bstar":2.2312e-5,"rev_number":15215,"period_min":94.266766054126,"perigee_km":482.07564890975,"apogee_km":484.02422599999,"semimajor_km":6861.1869374549,"source":"CELESTRAK","updated_at":"2026-09-21T09:00:33.942111Z"}}